Regional Weather Roundup
Issued by NWS Grand Forks, ND

Home | Current Version | Previous Version | Text Only | Print | Product List | Glossary Off
Versions: 1 2 3 4 5 6 7 8 9 10 11 12 13 14 15 16 17 18 19 20 21 22 23 24 25 26 27 28 29 30 31 32 33 34 35 36 37 38 39 40 41 42 43 44 45 46 47 48 49 50

000
ASUS43 KFGF 041831
RWRFGF
PRAIRIE TO PINES  WEATHER ROUNDUP
NATIONAL WEATHER SERVICE EASTERN NORTH DAKOTA/GRAND FORKS ND
100 PM CDT TUE AUG 04 2015

 **SATELLITE DATA USED TO AUGMENT SKY COVER AT AUTOMATED STATIONS**
 *****  WEATHER ACROSS EASTERN NORTH DAKOTA  *****

CITY           SKY/WX    TMP DP  RH WIND       PRES   REMARKS
GRAND FORKS    MOSUNNY   73  53  49 N6        30.02F
6HR MIN TEMP:  51; 6HR MAX TEMP:  73;

GRAND FRKS AFB SUNNY     73  54  51 VRB5      30.02F
GRAND FRKS NWS   N/A     73 N/A N/A NW6         N/A
DEVILS LAKE    SUNNY     73  52  46 SE8       30.02S
6HR MIN TEMP:  54; 6HR MAX TEMP:  73;

FARGO          SUNNY     78  47  33 NE9       30.00F
WAHPETON ARPT  CLEAR     77  43  29 N3        29.99F
$$

 ***** WEATHER ACROSS CENTRAL AND WESTERN NORTH DAKOTA  *****

CITY           SKY/WX    TMP DP  RH WIND       PRES   REMARKS
BISMARCK       SUNNY     81  55  40 SE9G16    29.98F
6HR MIN TEMP:  52; 6HR MAX TEMP:  81;

MINOT          SUNNY     79  49  34 E8        29.98F
6HR MIN TEMP:  53; 6HR MAX TEMP:  80;

JAMESTOWN      SUNNY     76  51  41 VRB3      30.00F
6HR MIN TEMP:  51; 6HR MAX TEMP:  77;

MINOT AFB      SUNNY     80  51  35 SE9       29.98F
GARRISON         N/A     77  54  44 E13       29.98F
WILLISTON      SUNNY     84  50  30 S17       29.93F
6HR MIN TEMP:  62; 6HR MAX TEMP:  85;

DICKINSON      SUNNY     80  57  45 SE15G22   29.96F
6HR MIN TEMP:  53; 6HR MAX TEMP:  80;

HETTINGER      SUNNY     80  58  46 SE14G21   29.98F
6HR MIN TEMP:  56; 6HR MAX TEMP:  80;

$$

 *****  OTHER AIRPORT OBSERVATIONS IN OUR AREA  *****

CITY           SKY/WX    TMP DP  RH WIND       PRES   REMARKS
WALHALLA       FAIR      68  54  60 MISG      30.05S
GRAFTON AIRPOR FAIR      72  54  53 N8        30.03F
VALLEY CITY AR FAIR      75  52  43 CALM      30.01F
CANDO          FAIR      73  54  49 E7        30.03F
CAVALIER APRT  FAIR      70  52  52 E3        30.04S
GWINNER        FAIR      79  54  41 E5        30.00S
SHEYENNE NWR     N/A     80  51  35 N3        29.95S
ROLLA            N/A     70  54  56 SE7       30.05F
 ***** THE ABOVE OBSERVATIONS ARE NON NWS ARE NOT QUALITY
       CONTROLLED AND MAY MIS-REPORT RAIN FOR SNOW...
$$

  *****  WEATHER ACROSS NORTHERN MINNESOTA  *****

CITY           SKY/WX    TMP DP  RH WIND       PRES   REMARKS
FLAG ISLAND    SUNNY     61  46  59 CALM      30.03S
WARROAD        SUNNY     63  54  72 E8        30.04S
ROSEAU         SUNNY     68  55  64 N8        30.03S
HALLOCK        SUNNY     70  52  52 CALM      30.03R
THF RVR FALLS  SUNNY     70  50  49 N7        30.03S
6HR MIN TEMP:  55; 6HR MAX TEMP:  70;

BAUDETTE       MOSUNNY   66  51  58 N7        30.03S
6HR MIN TEMP:  60; 6HR MAX TEMP:  66;

WASKISH        MOSUNNY   70  54  56 N7        30.01S
CROOKSTON      SUNNY     72  54  53 N10       30.02F
STEPHEN NDAWN    N/A     72  52  49 N9          N/A
GREENBUSH NDAW   N/A     72  52  49 NE6         N/A
$$
  *****  WEATHER ACROSS CENTRAL AND WEST MINNESOTA  *****

CITY           SKY/WX    TMP DP  RH WIND       PRES   REMARKS
FOSSTON        MOSUNNY   73  52  46 NW10      30.02F
BEMIDJI        PTSUNNY   70  54  56 N9        30.00F
PARK RAPIDS    SUNNY     76  49  38 N12       30.00F
6HR MIN TEMP:  51; 6HR MAX TEMP:  76;

ELBOW LAKE     FAIR      76  49  38 NW6       30.00F
WADENA         SUNNY     77  48  36 N12       29.99F
DETROIT LAKES  SUNNY     73  50  43 N10       30.02F
MOORHEAD       SUNNY     75  54  46 NE7       30.00F
FERGUS FALLS   SUNNY     77  50  38 N7        29.99S
MORRIS MN      SUNNY     79  52  38 NE3       29.99F
STAPLES        SUNNY     77  46  33 N14       29.99F
$$
  *****  WEATHER ELSEWHERE ACROSS MINNESOTA  *****

CITY           SKY/WX    TMP DP  RH WIND       PRES   REMARKS
DULUTH         PTSUNNY   70  52  52 NW9       29.98F
6HR MIN TEMP:  55; 6HR MAX TEMP:  72;

INTRNTL FALLS  PTSUNNY   61  49  64 NE6       30.03S
6HR MIN TEMP:  52; 6HR MAX TEMP:  62;

ELY            CLOUDY    61  48  63 NW7       30.01R
CLOQUET        PTSUNNY   72  50  46 NW13G20   29.98S
WHEATON        SUNNY     75  52  43 NW7       30.01S
BRAINERD       SUNNY     76  49  38 NW9G18    29.99F
6HR MIN TEMP:  51; 6HR MAX TEMP:  76;

HIBBING        CLOUDY    68  50  52 N12       30.00S
6HR MIN TEMP:  47; 6HR MAX TEMP:  69;

ALEXANDRIA     SUNNY     77  51  40 NW9       30.02F
6HR MIN TEMP:  55; 6HR MAX TEMP:  77;

SAINT CLOUD    MOSUNNY   78  52  40 NW13      29.99S
6HR MIN TEMP:  52; 6HR MAX TEMP:  79;

MINNEAPOLIS    MOSUNNY   78  49  35 NW10G18   30.00S
6HR MIN TEMP:  61; 6HR MAX TEMP:  79;

$$

  *****  WEATHER ACROSS SOUTH DAKOTA  *****

CITY           SKY/WX    TMP DP  RH WIND       PRES   REMARKS
SIOUX FALLS    CLOUDY    75  61  61 E12       29.99R
6HR MIN TEMP:  59; 6HR MAX TEMP:  75;

BROOKINGS      PTSUNNY   75  59  57 E6        30.02R
WATERTOWN      SUNNY     79  55  43 MISG      30.00S
6HR MIN TEMP:  56; 6HR MAX TEMP:  79;

HURON          PTSUNNY   79  64  60 E10       29.96S
6HR MIN TEMP:  60; 6HR MAX TEMP:  80;

SISSETON         N/A     79  48  33 CALM      29.98F
ABERDEEN       MOSUNNY   79  56  45 E7        29.98F
6HR MIN TEMP:  56; 6HR MAX TEMP:  80;

MITCHELL       PTSUNNY   77  65  66 SE9       29.97S
PIERRE         PTSUNNY   80  59  48 SE12      29.94S
6HR MIN TEMP:  65; 6HR MAX TEMP:  80;

MOBRIDGE       MOSUNNY   81  63  54 SE10      29.94F
RAPID CITY     PTSUNNY   76  64  66 S13       29.96F
6HR MIN TEMP:  63; 6HR MAX TEMP:  76;

$$

  *****  SOME WEATHER IN NEARBY STATES *****

CITY           SKY/WX    TMP DP  RH WIND       PRES   REMARKS
GLASGOW MT     SUNNY     85  56  37 SE17      29.86S
6HR MIN TEMP:  64; 6HR MAX TEMP:  85;

GREAT FALLS MT CLOUDY    80  41  24 SW12      29.94R
6HR MIN TEMP:  68; 6HR MAX TEMP:  80; 6HR PCP: TRACE;

CHEYENNE WY    CLOUDY    71  47  42 W20G26    30.13S
6HR MIN TEMP:  57; 6HR MAX TEMP:  71; 6HR PCP:  0.02;

SCOTTSBLUFF NE MOSUNNY   78  55  44 E8        30.00F
6HR MIN TEMP:  58; 6HR MAX TEMP:  78; 6HR PCP:  0.01;

OMAHA NE       CLOUDY    71  64  78 SE13      29.95F
6HR MIN TEMP:  66; 6HR MAX TEMP:  71; 6HR PCP:  0.20;

DES MOINES IA  CLOUDY    75  58  55 CALM      30.03F
6HR MIN TEMP:  69; 6HR MAX TEMP:  76; 6HR PCP: TRACE;

DAVENPORT IA   PTSUNNY   78  59  51 W8        30.02S
6HR MIN TEMP:  59; 6HR MAX TEMP:  79;

CHICAGO IL     PTSUNNY   79  52  38 W12       29.97S
6HR MIN TEMP:  63; 6HR MAX TEMP:  81;

EAU CLAIRE WI  PTSUNNY   77  52  41 NW9       29.98F
6HR MIN TEMP:  56; 6HR MAX TEMP:  77;

LA CROSSE WI   MOSUNNY   79  51  37 NW8       30.00S
6HR MIN TEMP:  60; 6HR MAX TEMP:  79;

$$

  *****  SOME NATIONAL WEATHER *****

CITY           SKY/WX    TMP DP  RH WIND       PRES   REMARKS
LA GUARDIA NY  MOSUNNY   88  60  38 W14G25    29.83F
6HR MIN TEMP:  74; 6HR MAX TEMP:  89;

RALEIGH NC     MOSUNNY   91  70  49 SE8       29.97F HX  96
6HR MIN TEMP:  77; 6HR MAX TEMP:  92;

ATLANTA GA     MOSUNNY   94  57  28 CALM      30.03S HX  92
6HR MIN TEMP:  76; 6HR MAX TEMP:  95;

NEW ORLEANS LA PTSUNNY   83  76  79 SE12      29.99S HX  91
6HR MIN TEMP:  81; 6HR MAX TEMP:  87;

OKLAHOMA CITY  LGT RAIN  76  72  87 S7        29.97F
ALBUQUERQUE NM MOSUNNY   84  47  27 VRB3      30.20F
6HR MIN TEMP:  64; 6HR MAX TEMP:  84;

SALT LAKE CITY MOSUNNY   78  55  44 CALM      30.10F
6HR MIN TEMP:  59; 6HR MAX TEMP:  78;

LOS ANGELES CA PTSUNNY   79  64  60 W9        29.94R
6HR MIN TEMP:  66; 6HR MAX TEMP:  79;



USA.gov is the U.S. government's official web portal to all federal, state and local government web resources and services.